Weather History for Redmond, OR

Change the Weather History Date:

Sunday, February 17, 2013

  Actual Average Record
Temperature  
Mean Temperature 33 °F 35 °F  
Max Temperature 45 °F 47 °F 67 °F (2007)
Min Temperature 20 °F 24 °F 7 °F (2006)
Degree Days  
Heating Degree Days 32 30  
Month to date heating degree days 490 517  
Since 1 July heating degree days 4135 4357  
Cooling Degree Days 0 0  
Month to date cooling degree days 0 0  
Year to date cooling degree days 0 0  
Moisture  
Dew Point 19 °F    
Average Humidity 61    
Maximum Humidity 91    
Minimum Humidity 30    
Precipitation  
Precipitation 0.00 in 0.02 in 0.58 in (1953)
Month to date precipitation T 0.41  
Year to date precipitation 0.41 1.38  
Sea Level Pressure  
Sea Level Pressure 30.15 in    
Wind  
Wind Speed 4 mph (WNW)    
Max Wind Speed 14 mph    
Max Gust Speed 16 mph    
Visibility 10 miles    
Events      
T = Trace of Precipitation, MM = Missing Value Source: NWS Daily Summary

Daily Weather History Graph

Daily Weather History Graph

Search for Another Location

Airport:

Trip Planner

Search our weather history database for the weather conditions in past years. The results will help you decide how hot, cold, wet, or windy it might be!

Date:

Astronomy

Feb. 17, 2013 Rise Set
Actual Time 7:00 AM PST 5:37 PM PST
Civil Twilight 6:31 AM PST 6:06 PM PST
Nautical Twilight 5:57 AM PST 6:40 PM PST
Astronomical Twilight 5:23 AM PST 7:14 PM PST
Moon 10:39 AM PST (2/17) 12:54 AM PST (2/17)
Length of Visible Light 11h 35m
Length of Day
10h 36m
Waxing Crescent, 50% of the Moon is Illuminated
Feb 17
Waxing Crescent
Feb 17
First Quarter
Feb 25
Full
Mar 4
Last Quarter
Mar 11
New

Hourly Weather History & Observations

Time (PST) Temp. Windchill Dew Point Humidity Pressure Visibility Wind Dir Wind Speed Gust Speed Precip Events Conditions
12:56 AM 32.0 °F 25.6 °F 23.0 °F 69% 30.17 in 10.0 mi West 6.9 mph - N/A   Clear
1:56 AM 28.9 °F 21.9 °F 21.9 °F 75% 30.18 in 10.0 mi WNW 6.9 mph - N/A   Clear
2:56 AM 28.0 °F 18.6 °F 21.0 °F 75% 30.18 in 10.0 mi WNW 10.4 mph - N/A   Clear
4:56 AM 23.0 °F - 18.0 °F 81% 30.20 in 10.0 mi Calm Calm - N/A   Clear
5:56 AM 21.0 °F 13.4 °F 17.1 °F 85% 30.20 in 10.0 mi SSE 5.8 mph - N/A   Clear
6:56 AM 19.9 °F 14.9 °F 17.1 °F 89% 30.22 in 10.0 mi South 3.5 mph - N/A   Clear
7:56 AM 24.1 °F 17.0 °F 19.0 °F 81% 30.22 in 10.0 mi SSE 5.8 mph - N/A   Clear
8:56 AM 32.0 °F 26.4 °F 21.9 °F 66% 30.21 in 10.0 mi South 5.8 mph - N/A   Clear
9:56 AM 34.0 °F 31.0 °F 21.9 °F 61% 30.21 in 10.0 mi Variable 3.5 mph - N/A   Clear
10:56 AM 36.0 °F 33.3 °F 21.0 °F 55% 30.20 in 10.0 mi Variable 3.5 mph - N/A   Clear
11:56 AM 39.0 °F 35.7 °F 19.9 °F 46% 30.17 in 10.0 mi West 4.6 mph - N/A   Clear
12:56 PM 42.1 °F - 17.1 °F 37% 30.14 in 10.0 mi Calm Calm - N/A   Clear
1:56 PM 42.1 °F - 14.0 °F 32% 30.12 in 10.0 mi Calm Calm - N/A   Clear
2:56 PM 45.0 °F 42.6 °F 17.1 °F 33% 30.10 in 10.0 mi NNW 4.6 mph - N/A   Clear
3:56 PM 44.1 °F 41.5 °F 16.0 °F 32% 30.09 in 10.0 mi NE 4.6 mph - N/A   Clear
4:56 PM 42.1 °F 39.2 °F 15.1 °F 34% 30.10 in 10.0 mi ENE 4.6 mph - N/A   Clear
5:56 PM 34.0 °F 28.0 °F 16.0 °F 48% 30.11 in 10.0 mi NNE 6.9 mph - N/A   Clear
6:56 PM 33.1 °F 26.9 °F 21.9 °F 64% 30.12 in 10.0 mi WNW 6.9 mph - N/A   Clear
7:56 PM 30.9 °F 25.2 °F 21.9 °F 69% 30.12 in 10.0 mi NW 5.8 mph - N/A   Clear
8:56 PM 30.0 °F 23.2 °F 21.9 °F 72% 30.11 in 10.0 mi WNW 6.9 mph - N/A   Clear
9:56 PM 28.9 °F - 21.9 °F 75% 30.09 in 10.0 mi Calm Calm - N/A   Partly Cloudy
10:56 PM 26.1 °F - 21.0 °F 81% 30.08 in 10.0 mi Calm Calm - N/A   Clear
11:56 PM 25.0 °F - 19.9 °F 81% 30.07 in 10.0 mi Calm Calm - N/A   Clear